Socorro, NM

1:37 AM MST on January 22, 2017 (GMT -0700)
Socorro Municipal

Weather History for KONM - April, 2014

Change the Weather History Date:

Sunday, April 6, 2014

  Actual Average Record
Temperature  
Mean Temperature 52 °F -  
Max Temperature 66 °F 74 °F 80 °F (2011)
Min Temperature 38 °F 35 °F 38 °F (2014)
Degree Days  
Heating Degree Days 13    
Growing Degree Days 2 (Base 50)    
Moisture  
Dew Point 18 °F    
Average Humidity 29    
Maximum Humidity 61    
Minimum Humidity 14    
Precipitation  
Precipitation 0.00 in - - ()
Sea Level Pressure  
Sea Level Pressure 29.91 in    
Wind  
Wind Speed 8 mph (NNW)    
Max Wind Speed 24 mph    
Max Gust Speed 38 mph    
Visibility 10 miles    
Events      
Averages and records for this station are not official NWS values.
T = Trace of Precipitation, MM = Missing Value Source: NWS Daily Summary

Daily Weather History Graph

Daily Weather History Graph

Search for Another Location

Airport or City:

Trip Planner

Search our weather history database for the weather conditions in past years. The results will help you decide how hot, cold, wet, or windy it might be!

Date:

Astronomy

Apr. 06, 2014 Rise Set
Actual Time 6:48 AM MDT 7:32 PM MDT
Civil Twilight 6:22 AM MDT 7:57 PM MDT
Nautical Twilight 5:53 AM MDT 8:27 PM MDT
Astronomical Twilight 5:22 AM MDT 8:58 PM MDT
Moon 12:00 PM MDT (4/6) 1:21 AM MDT (4/6)
Length of Visible Light 13h 34m
Length of Day
12h 44m
Waxing Crescent, 44% of the Moon is Illuminated
Apr 6
Waxing Crescent
Apr 7
First Quarter
Apr 15
Full
Apr 22
Last Quarter
Apr 29
New

Hourly Weather History & Observations

Time (MDT) Temp. Windchill Dew Point Humidity Pressure Visibility Wind Dir Wind Speed Gust Speed Precip Events Conditions
12:15 AM 44.6 °F 42.2 °F 29.3 °F 55% 29.93 in 10.0 mi SSW 4.6 mph - N/A   Mostly Cloudy
12:35 AM 43.5 °F 40.1 °F 29.3 °F 57% 29.93 in 10.0 mi SW 5.8 mph - N/A   Scattered Clouds
12:55 AM 42.3 °F 40.5 °F 28.8 °F 59% 29.92 in 10.0 mi South 3.5 mph - N/A   Clear
1:15 AM 41.4 °F 39.4 °F 28.6 °F 60% 29.92 in 10.0 mi ESE 3.5 mph - N/A   Clear
1:35 AM 42.3 °F - 28.6 °F 58% 29.92 in 10.0 mi Calm Calm - N/A   Clear
1:55 AM 41.2 °F - 28.6 °F 61% 29.91 in 10.0 mi Calm Calm - N/A   Clear
2:15 AM 47.8 °F - 19.6 °F 33% 29.91 in 10.0 mi WNW 13.8 mph 19.6 mph N/A   Clear
2:35 AM 49.8 °F - 19.4 °F 30% 29.89 in 10.0 mi WNW 20.7 mph 27.6 mph N/A   Clear
2:55 AM 49.6 °F - 19.4 °F 30% 29.89 in 10.0 mi WNW 17.3 mph 26.5 mph N/A   Clear
3:15 AM 49.8 °F - 19.4 °F 30% 29.88 in 10.0 mi WNW 17.3 mph 29.9 mph N/A   Clear
3:35 AM 49.3 °F - 19.4 °F 31% 29.88 in 10.0 mi WNW 18.4 mph 25.3 mph N/A   Clear
3:55 AM 49.1 °F - 19.2 °F 31% 29.89 in 10.0 mi WNW 9.2 mph 21.9 mph N/A   Clear
4:15 AM 44.1 °F - 19.9 °F 38% 29.90 in 10.0 mi Calm Calm - N/A   Clear
4:35 AM 41.7 °F - 21.4 °F 44% 29.90 in 10.0 mi Calm Calm - N/A   Clear
4:55 AM 46.6 °F - 19.4 °F 34% 29.91 in 10.0 mi NNE 5.8 mph - N/A   Clear
5:15 AM 39.2 °F 35.9 °F 24.4 °F 56% 29.91 in 10.0 mi SE 4.6 mph - N/A   Clear
5:35 AM 40.3 °F 37.1 °F 22.1 °F 48% 29.92 in 10.0 mi ENE 4.6 mph - N/A   Clear
5:55 AM 40.1 °F 38.0 °F 21.4 °F 47% 29.92 in 10.0 mi SW 3.5 mph - N/A   Clear
6:15 AM 41.4 °F 36.2 °F 21.7 °F 46% 29.92 in 10.0 mi East 8.1 mph - N/A   Clear
6:35 AM 41.0 °F - 22.1 °F 47% 29.92 in 10.0 mi Calm Calm - N/A   Clear
6:55 AM 38.5 °F 36.1 °F 23.2 °F 54% 29.93 in 10.0 mi South 3.5 mph - N/A   Clear
7:15 AM 40.1 °F 38.0 °F 22.8 °F 50% 29.94 in 10.0 mi SE 3.5 mph - N/A   Scattered Clouds
7:35 AM 38.7 °F - 24.1 °F 56% 29.94 in 10.0 mi Calm Calm - N/A   Scattered Clouds
7:55 AM 42.6 °F - 23.7 °F 47% 29.95 in 10.0 mi Calm Calm - N/A   Clear
8:15 AM 43.3 °F - 23.2 °F 45% 29.94 in 10.0 mi Calm Calm - N/A   Clear
8:35 AM 44.8 °F 43.3 °F 23.0 °F 42% 29.95 in 10.0 mi East 3.5 mph - N/A   Clear
8:55 AM 46.2 °F - 23.0 °F 40% 29.95 in 10.0 mi Calm Calm - N/A   Clear
9:15 AM 48.4 °F - 23.5 °F 38% 29.95 in 10.0 mi Calm Calm - N/A   Clear
9:35 AM 49.5 °F - 23.4 °F 36% 29.95 in 10.0 mi Calm Calm - N/A   Clear
9:55 AM 54.9 °F - 22.1 °F 28% 29.95 in 10.0 mi North 11.5 mph - N/A   Clear
10:15 AM 56.7 °F - 21.6 °F 26% 29.94 in 10.0 mi NNW 12.7 mph 17.3 mph N/A   Clear
10:35 AM 57.9 °F - 21.2 °F 24% 29.94 in 10.0 mi NW 10.4 mph 23.0 mph N/A   Clear
10:55 AM 58.6 °F - 20.5 °F 23% 29.94 in 10.0 mi NNW 16.1 mph 20.7 mph N/A   Clear
11:15 AM 59.7 °F - 20.7 °F 22% 29.94 in 10.0 mi North 8.1 mph 19.6 mph N/A   Clear
11:35 AM 59.7 °F - 20.8 °F 22% 29.93 in 10.0 mi NE 10.4 mph 18.4 mph N/A   Scattered Clouds
11:55 AM 60.8 °F - 19.2 °F 20% 29.92 in 10.0 mi NNW 9.2 mph 16.1 mph N/A   Scattered Clouds
12:15 PM 60.6 °F - 18.9 °F 20% 29.91 in 10.0 mi NE 10.4 mph 17.3 mph N/A   Mostly Cloudy
12:35 PM 59.7 °F - 18.9 °F 21% 29.90 in 10.0 mi NW 5.8 mph 17.3 mph N/A   Overcast
12:55 PM 60.1 °F - 19.4 °F 21% 29.90 in 10.0 mi NNE 10.4 mph 19.6 mph N/A   Mostly Cloudy
1:15 PM 61.9 °F - 15.6 °F 17% 29.88 in 10.0 mi NNE 9.2 mph - N/A   Mostly Cloudy
1:35 PM 63.7 °F - 14.4 °F 15% 29.88 in 10.0 mi NNW 13.8 mph 19.6 mph N/A   Scattered Clouds
1:55 PM 62.8 °F - 13.8 °F 15% 29.87 in 10.0 mi NW 8.1 mph 19.6 mph N/A   Mostly Cloudy
2:15 PM 63.3 °F - 14.5 °F 15% 29.86 in 10.0 mi NNW 9.2 mph 21.9 mph N/A   Mostly Cloudy
2:35 PM 65.3 °F - 15.6 °F 15% 29.86 in 10.0 mi WNW 16.1 mph 27.6 mph N/A   Mostly Cloudy
2:55 PM 64.0 °F - 15.6 °F 15% 29.86 in 10.0 mi NW 17.3 mph 25.3 mph N/A   Scattered Clouds
3:15 PM 66.4 °F - 15.6 °F 14% 29.85 in 10.0 mi NW 20.7 mph 29.9 mph N/A   Scattered Clouds
3:35 PM 65.8 °F - 14.9 °F 14% 29.85 in 10.0 mi NW 18.4 mph 24.2 mph N/A   Scattered Clouds
3:55 PM 62.2 °F - 20.1 °F 20% 29.86 in 10.0 mi NNW 24.2 mph 38.0 mph N/A   Mostly Cloudy
4:15 PM 63.0 °F - 17.4 °F 17% 29.87 in 10.0 mi WNW 19.6 mph 31.1 mph N/A   Scattered Clouds
4:35 PM 63.7 °F - 17.6 °F 17% 29.85 in 10.0 mi NW 9.2 mph 18.4 mph N/A   Scattered Clouds
4:55 PM 64.2 °F - 16.3 °F 16% 29.85 in 10.0 mi NW 23.0 mph 29.9 mph N/A   Scattered Clouds
5:15 PM 59.5 °F - 20.3 °F 22% 29.86 in 10.0 mi NNW 5.8 mph 24.2 mph N/A   Mostly Cloudy
5:35 PM 61.9 °F - 17.4 °F 18% 29.86 in 10.0 mi NNW 8.1 mph 24.2 mph N/A   Mostly Cloudy
5:55 PM 60.8 °F - 16.2 °F 18% 29.86 in 10.0 mi NNW 11.5 mph 16.1 mph N/A   Scattered Clouds
6:15 PM 61.0 °F - 13.3 °F 15% 29.85 in 10.0 mi NW 11.5 mph 28.8 mph N/A   Mostly Cloudy
6:35 PM 60.3 °F - 19.2 °F 20% 29.85 in 10.0 mi North 4.6 mph 18.4 mph N/A   Mostly Cloudy
6:55 PM 59.4 °F - 17.6 °F 20% 29.85 in 10.0 mi NNE 8.1 mph 17.3 mph N/A   Mostly Cloudy
7:15 PM 60.1 °F - 13.5 °F 16% 29.87 in 10.0 mi North 13.8 mph 28.8 mph N/A   Mostly Cloudy
7:35 PM 58.6 °F - 14.7 °F 18% 29.87 in 10.0 mi NW 6.9 mph - N/A   Scattered Clouds
7:55 PM 58.8 °F - 10.2 °F 15% 29.88 in 10.0 mi NW 21.9 mph 28.8 mph N/A   Scattered Clouds
8:15 PM 58.8 °F - 9.7 °F 14% 29.88 in 10.0 mi North 13.8 mph 19.6 mph N/A   Mostly Cloudy
8:35 PM 58.1 °F - 9.9 °F 15% 29.89 in 10.0 mi WNW 11.5 mph 20.7 mph N/A   Mostly Cloudy
8:55 PM 57.4 °F - 9.1 °F 15% 29.90 in 10.0 mi North 9.2 mph 18.4 mph N/A   Mostly Cloudy
9:15 PM 54.7 °F - 12.2 °F 19% 29.92 in 10.0 mi NW 5.8 mph - N/A   Mostly Cloudy
9:35 PM 52.9 °F - 13.1 °F 21% 29.93 in 10.0 mi NW 5.8 mph - N/A   Scattered Clouds
9:55 PM 53.1 °F - 13.1 °F 20% 29.94 in 10.0 mi NW 8.1 mph - N/A   Clear
10:15 PM 51.8 °F - 11.1 °F 20% 29.94 in 10.0 mi NNW 6.9 mph - N/A   Clear
10:35 PM 50.5 °F - 9.5 °F 19% 29.95 in 10.0 mi North 6.9 mph - N/A   Clear
10:55 PM 52.7 °F - 9.3 °F 18% 29.95 in 10.0 mi NW 15.0 mph 20.7 mph N/A   Clear
11:15 PM 53.1 °F - 9.0 °F 17% 29.96 in 10.0 mi NW 16.1 mph 21.9 mph N/A   Clear
11:35 PM 52.7 °F - 7.0 °F 16% 29.96 in 10.0 mi NW 16.1 mph - N/A   Clear
11:55 PM 52.0 °F - 8.4 °F 17% 29.97 in 10.0 mi NW 13.8 mph - N/A   Clear